Retour au catalogue

METEOR 1-5

ActifMétéoPO
NORAD 4419·PAYLOAD·🇷🇺 Russia

Lancé Jun 23, 1970 depuis Plesetsk Cosmodrome

Loading…

Prochains Passages (prochaines 24 heures)

TLE

FraisSource: Space-Track

Époque: Sep 14, 2026, 02:19 UTC

1 04419U 70047A   26257.09661806  .00000140  00000-0  63793-4 0  9991
2 04419  81.2182 148.0670 0039616 158.8652 201.4170 14.16191963901329

Suivez METEOR 1-5 en temps réel avec AllMySat

Download on the App Store